TimeAEDT,TemperatureF,Dew PointF,Humidity,Sea Level PressureIn,VisibilityMPH,Wind Direction,Wind SpeedMPH,Gust SpeedMPH,PrecipitationIn,Events,Conditions,WindDirDegrees,DateUTC
12:00 AM,61,57,81,29.92,19,SW,9.2,,,,Partly Cloudy,220,2013-12-02 13:00:00
12:00 AM,60.8,57.2,88,29.92,-9999.0,SSW,9.2,-,N/A,,Clear,210,2013-12-02 13:00:00
12:30 AM,59.0,57.2,94,29.92,-9999.0,SSW,8.1,-,N/A,,Clear,210,2013-12-02 13:30:00
1:00 AM,60,57,87,29.91,,SW,4.6,,,,,220,2013-12-02 14:00:00
1:00 AM,59.0,57.2,94,29.92,-9999.0,SW,4.6,-,N/A,,Clear,220,2013-12-02 14:00:00
1:30 AM,59.0,57.2,94,29.89,-9999.0,SW,5.8,-,N/A,,Clear,230,2013-12-02 14:30:00
2:00 AM,60,56,83,29.88,,Calm,Calm,,,,,,2013-12-02 15:00:00
2:00 AM,59.0,57.2,94,29.89,-9999.0,Calm,Calm,-,N/A,,Clear,0,2013-12-02 15:00:00
2:30 AM,59.0,55.4,88,29.86,-9999.0,North,5.8,-,N/A,,Clear,360,2013-12-02 15:30:00
3:00 AM,58,55,87,29.86,12,North,5.8,,,,Haze,0,2013-12-02 16:00:00
3:00 AM,57.2,55.4,94,29.86,-9999.0,North,5.8,-,N/A,,Clear,360,2013-12-02 16:00:00
3:30 AM,57.2,55.4,94,29.83,-9999.0,North,5.8,-,N/A,,Clear,360,2013-12-02 16:30:00
4:00 AM,56,54,90,29.84,,NNE,1.2,,,,,20,2013-12-02 17:00:00
4:00 AM,55.4,53.6,94,29.83,-9999.0,NNE,1.2,-,N/A,,Clear,20,2013-12-02 17:00:00
4:30 AM,55.4,53.6,94,29.83,-9999.0,West,3.5,-,N/A,,Clear,270,2013-12-02 17:30:00
5:00 AM,55,54,94,29.84,,West,6.9,,,,,260,2013-12-02 18:00:00
5:00 AM,55.4,53.6,94,29.83,-9999.0,West,6.9,-,N/A,,Clear,260,2013-12-02 18:00:00
5:30 AM,55.4,53.6,94,29.83,-9999.0,West,5.8,-,N/A,,Clear,270,2013-12-02 18:30:00
6:00 AM,54,53,95,29.84,6,North,6.9,,,,Haze,10,2013-12-02 19:00:00
6:00 AM,53.6,53.6,100,29.83,5.6,North,6.9,-,N/A,,Mostly Cloudy,10,2013-12-02 19:00:00
6:30 AM,57.2,55.4,94,29.86,4.3,NW,4.6,-,N/A,,Mostly Cloudy,320,2013-12-02 19:30:00
7:00 AM,58,56,92,29.84,,WNW,3.5,,,,,290,2013-12-02 20:00:00
7:00 AM,59.0,57.2,94,29.83,4.3,WNW,3.5,-,N/A,,Mostly Cloudy,290,2013-12-02 20:00:00
7:12 AM,59.0,57.2,94,29.83,3.7,West,3.5,-,N/A,,Mostly Cloudy,270,2013-12-02 20:12:00
7:30 AM,59.0,57.2,94,29.83,-9999.0,West,3.5,-,N/A,,Haze,270,2013-12-02 20:30:00
8:00 AM,60,58,89,29.83,,Calm,Calm,,,,,,2013-12-02 21:00:00
8:00 AM,60.8,57.2,88,29.83,3.7,Calm,Calm,-,N/A,,Partly Cloudy,0,2013-12-02 21:00:00
8:11 AM,60.8,57.2,88,29.83,4.3,West,1.2,-,N/A,,Partly Cloudy,260,2013-12-02 21:11:00
8:20 AM,62.6,57.2,82,29.83,5.0,WNW,2.3,-,N/A,,Partly Cloudy,290,2013-12-02 21:20:00
8:30 AM,64.4,57.2,77,29.83,-9999.0,WSW,5.8,-,N/A,,Clear,250,2013-12-02 21:30:00
9:00 AM,68,56,57,29.83,12,WSW,6.9,,,,Partly Cloudy,250,2013-12-02 22:00:00
9:00 AM,68.0,57.2,68,29.83,-9999.0,WSW,6.9,-,N/A,,Clear,250,2013-12-02 22:00:00
9:30 AM,71.6,57.2,60,29.83,-9999.0,South,4.6,-,N/A,,Clear,180,2013-12-02 22:30:00
10:00 AM,73,57,46,29.84,,SSW,8.1,,,,,200,2013-12-02 23:00:00
10:00 AM,73.4,57.2,57,29.83,-9999.0,SSW,8.1,-,N/A,,Clear,200,2013-12-02 23:00:00
10:30 AM,71.6,57.2,60,29.86,6.2,SW,9.2,-,N/A,,Unknown,220,2013-12-02 23:30:00
11:00 AM,71,59,57,29.86,,South,9.2,,,,,180,2013-12-03 00:00:00
11:00 AM,69.8,59.0,68,29.86,-9999.0,South,9.2,-,N/A,,Clear,180,2013-12-03 00:00:00
11:30 AM,71.6,59.0,64,29.86,-9999.0,South,8.1,-,N/A,,Clear,190,2013-12-03 00:30:00
12:00 PM,73,59,51,29.84,16,SSE,8.1,,,,Haze,150,2013-12-03 01:00:00
12:00 PM,73.4,59.0,61,29.83,-9999.0,SSE,8.1,-,N/A,,Clear,150,2013-12-03 01:00:00
12:30 PM,73.4,57.2,57,29.83,-9999.0,SE,9.2,-,N/A,,Clear,140,2013-12-03 01:30:00
1:00 PM,72,58,51,29.82,,SSE,8.1,,,,,150,2013-12-03 02:00:00
1:00 PM,71.6,57.2,60,29.83,-9999.0,SSE,8.1,-,N/A,,Clear,150,2013-12-03 02:00:00
1:30 PM,71.6,59.0,64,29.80,-9999.0,SSE,9.2,-,N/A,,Clear,150,2013-12-03 02:30:00
2:00 PM,75,58,46,29.80,,SE,8.1,,,,,130,2013-12-03 03:00:00
2:00 PM,75.2,59.0,57,29.80,-9999.0,SE,8.1,-,N/A,,Clear,130,2013-12-03 03:00:00
2:30 PM,80.6,59.0,48,29.77,-9999.0,East,8.1,-,N/A,,Clear,90,2013-12-03 03:30:00
3:00 PM,72,58,53,29.78,16,South,11.5,,,,Haze,180,2013-12-03 04:00:00
3:00 PM,73.4,59.0,61,29.77,-9999.0,South,11.5,-,N/A,,Clear,180,2013-12-03 04:00:00
3:30 PM,73.4,59.0,61,29.77,-9999.0,South,9.2,-,N/A,,Clear,170,2013-12-03 04:30:00
4:00 PM,76,60,47,29.73,,SSE,8.1,,,,,150,2013-12-03 05:00:00
4:00 PM,75.2,59.0,57,29.74,6.2,SSE,8.1,-,N/A,,Unknown,150,2013-12-03 05:00:00
4:30 PM,75.2,59.0,57,29.71,-9999.0,South,10.4,-,N/A,,Clear,170,2013-12-03 05:30:00
5:00 PM,77,59,44,29.71,,SSE,8.1,,,,,150,2013-12-03 06:00:00
5:00 PM,77.0,59.0,54,29.71,-9999.0,SSE,8.1,-,N/A,,Clear,150,2013-12-03 06:00:00
5:30 PM,75.2,59.0,57,29.71,-9999.0,SSE,9.2,-,N/A,,Clear,160,2013-12-03 06:30:00
6:00 PM,75,58,45,29.71,16,South,8.1,,,,Haze,170,2013-12-03 07:00:00
6:00 PM,75.2,57.2,53,29.71,-9999.0,South,8.1,-,N/A,,Clear,170,2013-12-03 07:00:00
6:30 PM,71.6,57.2,60,29.71,-9999.0,South,13.8,-,N/A,,Clear,190,2013-12-03 07:30:00
7:00 PM,70,57,54,29.73,,South,9.2,,,,,170,2013-12-03 08:00:00
7:00 PM,69.8,57.2,64,29.71,-9999.0,South,9.2,-,N/A,,Clear,170,2013-12-03 08:00:00
7:30 PM,68.0,57.2,68,29.71,-9999.0,SSE,10.4,-,N/A,,Clear,160,2013-12-03 08:30:00
8:00 PM,64,58,74,29.73,,South,13.8,,,,,180,2013-12-03 09:00:00
8:00 PM,64.4,57.2,77,29.74,-9999.0,South,13.8,-,N/A,,Clear,180,2013-12-03 09:00:00
8:30 PM,64.4,59.0,83,29.71,-9999.0,ESE,6.9,-,N/A,,Clear,120,2013-12-03 09:30:00
9:00 PM,64,58,76,29.72,9,NNE,8.1,,,,Overcast,30,2013-12-03 10:00:00
9:00 PM,64.4,59.0,83,29.71,-9999.0,NNE,8.1,-,N/A,,Clear,30,2013-12-03 10:00:00
9:30 PM,62.6,59.0,88,29.74,-9999.0,SSW,5.8,-,N/A,,Clear,210,2013-12-03 10:30:00
10:00 PM,63,59,81,29.73,,SW,5.8,,,,,220,2013-12-03 11:00:00
10:00 PM,62.6,59.0,88,29.74,6.2,SW,5.8,-,N/A,Rain,Light Rain,220,2013-12-03 11:00:00
10:30 PM,62.6,59.0,88,29.74,5.0,SSW,4.6,-,N/A,Rain,Light Rain,210,2013-12-03 11:30:00
11:00 PM,62,60,91,29.78,,SW,9.2,,,,,230,2013-12-03 12:00:00
11:00 PM,62.6,60.8,94,29.77,5.0,SW,9.2,-,N/A,Rain,Light Rain,230,2013-12-03 12:00:00
11:30 PM,60.8,59.0,94,29.77,5.0,SSW,6.9,-,N/A,Rain,Light Rain,200,2013-12-03 12:30:00
11:38 PM,60.8,59.0,94,29.77,4.3,SSW,4.6,-,N/A,Rain,Light Rain,200,2013-12-03 12:38:00